Flag for Switzerland Weather past 2 weeks in Küssnacht, Schwyz, Switzerland

Now
37 °F

Overcast.


Feels Like: 37 °F
Forecast: 12 / 34 °F
Wind: 2 mph from Northwest

Location: Altdorf

Current Time: Feb 27, 2015 at 8:08:09 AM

Latest Report: Feb 27, 2015 at 7:00 AM


Visibility: 11 mi

Pressure: 29.85 "Hg

Humidity: 71%

Dew point: 28 °F

Location of KüssnachtLocation

Historic Weather in Küssnacht — Graph

°F

Küssnacht temperature yesterday

Maximum temperature yesterday: 44 °F (at 3:00 PM)
Minimum temperature yesterday: 27 °F (at 6:00 AM)
Average temperature yesterday: 34 °F

Past Weeks' High & Low Weather Summary

 TemperatureHumidityPressure
High52 °F (Feb 21, 12:00 PM)100% (Feb 12, 6:00 AM)30.70 "Hg (Feb 12, 6:00 AM)
Low24 °F (Feb 13, 12:00 AM)18% (Feb 20, 8:00 PM)29.47 "Hg (Feb 21, 12:00 PM)
Average36 °F78%30.08 "Hg
* Reported Feb 12 6:00 AM — Feb 27 6:00 AM, Küssnacht, Weather by CustomWeather, © 2015

Note: Actual official high and low records may vary slightly from our data, if they occured in-between our weather recording intervals... More about our weather records

Advertising

Küssnacht weather history for previous 24 hours

 ConditionsComfort  
Time TempWeatherWind HumidityBarometerVisibility
6:00 AM
Fri, Feb 27
36 °FChilly.2 mph71%29.86 "HgN/A
5:00 AM35 °FChilly.1 mph72%29.87 "HgN/A
3:00 AM35 °FChilly.2 mph63%29.93 "HgN/A
2:00 AM34 °FChilly.2 mph71%29.96 "HgN/A
1:00 AM35 °FOvercast.1 mph61%29.98 "Hg16 mi
12:00 AM33 °FChilly.2 mph63%30.00 "HgN/A
11:00 PM
Thu, Feb 26
32 °FChilly.No wind68%30.02 "HgN/A
10:00 PM31 °FClear.1 mph70%30.05 "Hg19 mi
9:00 PM32 °FChilly.1 mph66%30.07 "HgN/A
8:00 PM35 °FChilly.2 mph61%30.08 "HgN/A
7:00 PM36 °FClear.2 mph58%30.08 "Hg16 mi
6:00 PM38 °FChilly.5 mph51%30.07 "HgN/A
5:00 PM38 °FChilly.2 mph60%30.07 "HgN/A
4:00 PM42 °FSunny.1 mph44%30.07 "Hg19 mi
3:00 PM44 °FQuite cool.7 mph37%30.07 "HgN/A
2:00 PM44 °FQuite cool.7 mph37%30.09 "HgN/A
12:00 PM42 °FQuite cool.6 mph44%30.15 "HgN/A
11:00 AM41 °FQuite cool.3 mph37%30.17 "HgN/A
10:00 AM37 °FSunny.6 mph42%30.21 "Hg16 mi
9:00 AM33 °FChilly.3 mph67%30.24 "HgN/A
8:00 AM28 °FChilly.2 mph72%30.26 "HgN/A
Weather by CustomWeather, © 2015

See weather overviewHow to use our weather pages